Tracking 18843 objects as of 21-November-2017
HD Live streaming from Space Station
objects crossing your sky now

FAISAT 2V

Track FAISAT 2V now!
10-day predictions
FAISAT 2V is classified as:


NORAD ID: 24954
Int'l Code: 1997-052B
Perigee: 941.4 km
Apogee: 1,000.9 km
Inclination: 82.9 °
Period: 104.4 minutes
Semi major axis: 7342 km
RCS: 0.9069 m2 (medium)
Launch date: September 23, 1997
Source: United States (US)
Launch site: PLESETSK MISSILE AND SPACE COMPLEX (PKMTR)
aabbcc
Your satellite tracking list
Your tracking list is empty




NASA's NSSDC Master Catalog

Two Line Element Set (TLE):
1 24954U 97052B   17324.63378088 +.00000059 +00000-0 +40937-4 0  9998
2 24954 082.9217 169.9154 0040491 115.7594 302.4007 13.79959578015207
Source of the keplerian elements: AFSPC